Torna al catalogo

OPS 4682 DEB

AttivoPO
NORAD 14049·DEBRIS·🇺🇸 United States

Lanciato Apr 3, 1965 da Vandenberg Space Force Base

Loading…

Prossimi Passaggi (prossime 24 ore)

TLE

AggiornatoSource: Space-Track

Epoca: Sep 11, 2026, 19:31 UTC

1 14049U 65027L   26254.81333330  .00000329  00000-0  11517-2 0  9992
2 14049  90.2528  10.4036 0038482 320.3036 194.7929 12.94623504 69431

Traccia OPS 4682 DEB in tempo reale con AllMySat

Download on the App Store